Weather History for Carrollton, GA

Change the Weather History Date:

Saturday, October 19, 2013

  Actual Average Record
Temperature  
Mean Temperature 58 °F -  
Max Temperature 64 °F 71 °F 82 °F (1953)
Min Temperature 53 °F 46 °F 30 °F (1967)
Degree Days  
Heating Degree Days 6    
Growing Degree Days 8 (Base 50)    
Moisture  
Dew Point 54 °F    
Average Humidity 91    
Maximum Humidity 100    
Minimum Humidity 72    
Precipitation  
Precipitation 0.00 in - - ()
Sea Level Pressure  
Sea Level Pressure 29.99 in    
Wind  
Wind Speed 1 mph (WNW)    
Max Wind Speed 7 mph    
Max Gust Speed -    
Visibility 10 miles    
Events Rain    
Averages and records for this station are not official NWS values.
T = Trace of Precipitation, MM = Missing Value Source: NWS Daily Summary

Daily Weather History Graph

Daily Weather History Graph

Search for Another Location

Airport:

Trip Planner

Search our weather history database for the weather conditions in past years. The results will help you decide how hot, cold, wet, or windy it might be!

Date:

Astronomy

Oct. 19, 2013 Rise Set
Actual Time 7:48 AM EDT 7:01 PM EDT
Civil Twilight 7:23 AM EDT 7:26 PM EDT
Nautical Twilight 6:54 AM EDT 7:55 PM EDT
Astronomical Twilight 6:25 AM EDT 8:24 PM EDT
Moon 7:32 PM EDT (10/19) 8:22 AM EDT (10/19)
Length of Visible Light 12h 03m
Length of Day
11h 13m
Waxing Gibbous, 99% of the Moon is Illuminated
Oct 19
Waxing Gibbous
Oct 26
Last Quarter
Nov 3
New
Nov 10
First Quarter
Nov 17
Full

Hourly Weather History & Observations

Time (EDT) Temp. Dew Point Humidity Pressure Visibility Wind Dir Wind Speed Gust Speed Precip Events Conditions
12:15 AM 57.2 °F 51.8 °F 82% 30.01 in 10.0 mi WNW 3.5 mph - N/A   Scattered Clouds
12:35 AM 57.2 °F 51.8 °F 82% 30.00 in 10.0 mi Calm Calm - N/A   Scattered Clouds
12:55 AM 55.4 °F 51.8 °F 88% 30.00 in 10.0 mi Calm Calm - N/A   Scattered Clouds
1:15 AM 55.4 °F 53.6 °F 94% 30.00 in 10.0 mi Calm Calm - N/A   Scattered Clouds
1:35 AM 55.4 °F 53.6 °F 94% 30.00 in 10.0 mi Calm Calm - N/A Rain Light Rain
1:55 AM 55.4 °F 53.6 °F 94% 30.00 in 10.0 mi Calm Calm - N/A Rain Light Rain
2:15 AM 55.4 °F 53.6 °F 94% 30.01 in 10.0 mi WNW 3.5 mph - N/A   Overcast
2:35 AM 55.4 °F 53.6 °F 94% 29.99 in 10.0 mi WNW 3.5 mph - N/A   Mostly Cloudy
2:55 AM 55.4 °F 53.6 °F 94% 29.99 in 10.0 mi WNW 4.6 mph - N/A   Scattered Clouds
3:15 AM 55.4 °F 53.6 °F 94% 29.97 in 10.0 mi Calm Calm - N/A   Mostly Cloudy
3:35 AM 55.4 °F 53.6 °F 94% 29.98 in 10.0 mi Calm Calm - N/A   Overcast
3:55 AM 55.4 °F 53.6 °F 94% 29.97 in 10.0 mi Calm Calm - N/A   Overcast
4:15 AM 55.4 °F 53.6 °F 94% 29.98 in 10.0 mi NW 5.8 mph - N/A   Mostly Cloudy
4:35 AM 55.4 °F 53.6 °F 94% 29.98 in 10.0 mi NW 3.5 mph - N/A   Light Drizzle
4:55 AM 55.4 °F 53.6 °F 94% 29.98 in 10.0 mi Calm Calm - N/A   Mostly Cloudy
5:15 AM 55.4 °F 53.6 °F 94% 29.96 in 10.0 mi Calm Calm - N/A Rain Light Rain
5:35 AM 55.4 °F 53.6 °F 94% 29.96 in 10.0 mi Calm Calm - N/A Rain Light Rain
5:55 AM 53.6 °F 53.6 °F 100% 29.97 in 10.0 mi Calm Calm - N/A   Mostly Cloudy
6:15 AM 55.4 °F 53.6 °F 94% 29.96 in 10.0 mi Calm Calm - N/A   Overcast
6:35 AM 53.6 °F 53.6 °F 100% 29.96 in 7.0 mi Calm Calm - N/A   Mostly Cloudy
6:55 AM 53.6 °F 53.6 °F 100% 29.97 in 10.0 mi Calm Calm - N/A   Mostly Cloudy
7:15 AM 53.6 °F 53.6 °F 100% 29.97 in 10.0 mi Calm Calm - N/A   Overcast
7:35 AM 53.6 °F 53.6 °F 100% 29.98 in 10.0 mi Calm Calm - N/A   Mostly Cloudy
7:55 AM 53.6 °F 53.6 °F 100% 29.98 in 7.0 mi Calm Calm - N/A   Scattered Clouds
8:15 AM 55.4 °F 53.6 °F 94% 29.98 in 10.0 mi Calm Calm - N/A   Mostly Cloudy
8:35 AM 55.4 °F 53.6 °F 94% 29.99 in 10.0 mi Calm Calm - N/A   Scattered Clouds
8:55 AM 55.4 °F 55.4 °F 100% 29.99 in 10.0 mi Calm Calm - N/A   Clear
9:15 AM 55.4 °F 55.4 °F 100% 29.99 in 7.0 mi Calm Calm - N/A   Clear
9:35 AM 55.4 °F 55.4 °F 100% 29.99 in 10.0 mi Calm Calm - N/A   Scattered Clouds
9:55 AM 55.4 °F 55.4 °F 100% 30.00 in 10.0 mi Calm Calm - N/A   Clear
10:15 AM 59.0 °F 55.4 °F 88% 29.99 in 10.0 mi Calm Calm - N/A   Scattered Clouds
10:35 AM 59.0 °F 53.6 °F 82% 30.00 in 10.0 mi Calm Calm - N/A   Mostly Cloudy
10:55 AM 59.0 °F 53.6 °F 82% 30.00 in 10.0 mi Calm Calm - N/A   Overcast
11:15 AM 59.0 °F 53.6 °F 82% 30.01 in 10.0 mi West 3.5 mph - N/A   Mostly Cloudy
11:35 AM 59.0 °F 53.6 °F 82% 30.00 in 10.0 mi Calm Calm - N/A   Overcast
11:55 AM 59.0 °F 53.6 °F 82% 30.00 in 10.0 mi Calm Calm - N/A Rain Light Rain
12:15 PM 59.0 °F 55.4 °F 88% 30.01 in 10.0 mi Calm Calm - N/A Rain Light Rain
12:35 PM 60.8 °F 55.4 °F 82% 29.99 in 10.0 mi Calm Calm - N/A   Light Drizzle
12:55 PM 60.8 °F 55.4 °F 82% 30.01 in 10.0 mi Calm Calm - N/A Rain Light Rain
2:55 PM 60.8 °F 55.4 °F 82% 29.97 in 10.0 mi Calm Calm - N/A   Scattered Clouds
3:15 PM 60.8 °F 57.2 °F 88% 29.97 in 10.0 mi Calm Calm - N/A   Scattered Clouds
3:35 PM 62.6 °F 55.4 °F 77% 29.97 in 10.0 mi NW 5.8 mph - N/A   Scattered Clouds
3:55 PM 62.6 °F 55.4 °F 77% 29.97 in 10.0 mi West 3.5 mph - N/A   Scattered Clouds
4:15 PM 62.6 °F 55.4 °F 77% 29.97 in 10.0 mi West 3.5 mph - N/A   Scattered Clouds
4:35 PM 62.6 °F 55.4 °F 77% 29.97 in 10.0 mi Calm Calm - N/A   Scattered Clouds
4:55 PM 62.6 °F 55.4 °F 77% 29.97 in 10.0 mi Calm Calm - N/A   Scattered Clouds
5:15 PM 64.4 °F 55.4 °F 73% 29.97 in 10.0 mi West 3.5 mph - N/A   Clear
5:35 PM 62.6 °F 55.4 °F 77% 29.97 in 10.0 mi Calm Calm - N/A   Mostly Cloudy
5:55 PM 64.4 °F 55.4 °F 73% 29.97 in 10.0 mi Calm Calm - N/A   Overcast
6:15 PM 62.6 °F 53.6 °F 72% 29.97 in 10.0 mi Calm Calm - N/A   Scattered Clouds
6:35 PM 60.8 °F 55.4 °F 82% 29.97 in 10.0 mi Calm Calm - N/A   Clear
6:55 PM 59.0 °F 57.2 °F 94% 29.98 in 10.0 mi Calm Calm - N/A   Clear
7:15 PM 59.0 °F 57.2 °F 94% 29.98 in 10.0 mi Calm Calm - N/A   Clear
7:35 PM 55.4 °F 55.4 °F 100% 29.98 in 10.0 mi Calm Calm - N/A   Clear
7:55 PM 55.4 °F 55.4 °F 100% 29.98 in 10.0 mi Calm Calm - N/A   Clear
8:15 PM 55.4 °F 53.6 °F 94% 29.98 in 10.0 mi Calm Calm - N/A   Clear
8:35 PM 53.6 °F 53.6 °F 100% 29.98 in 10.0 mi Calm Calm - N/A   Clear
8:55 PM 53.6 °F 53.6 °F 100% 29.98 in 7.0 mi Calm Calm - N/A   Scattered Clouds
9:15 PM 53.6 °F 53.6 °F 100% 29.99 in 10.0 mi Calm Calm - N/A   Mostly Cloudy
9:35 PM 53.6 °F 53.6 °F 100% 29.99 in 10.0 mi Calm Calm - N/A   Mostly Cloudy
9:55 PM 53.6 °F 53.6 °F 100% 29.99 in 10.0 mi Calm Calm - N/A   Overcast
10:15 PM 53.6 °F 53.6 °F 100% 29.99 in 10.0 mi Calm Calm - N/A   Mostly Cloudy
10:35 PM 55.4 °F 53.6 °F 94% 30.00 in 10.0 mi NW 3.5 mph - N/A   Scattered Clouds
10:55 PM 55.4 °F 53.6 °F 94% 30.01 in 10.0 mi NW 4.6 mph - N/A   Clear
11:15 PM 55.4 °F 53.6 °F 94% 30.01 in 10.0 mi NW 5.8 mph - N/A   Clear
11:35 PM 55.4 °F 53.6 °F 94% 30.01 in 10.0 mi NW 5.8 mph - N/A   Scattered Clouds
11:55 PM 53.6 °F 51.8 °F 94% 30.01 in 10.0 mi NNW 6.9 mph - N/A   Scattered Clouds